[[{"header":{"parameterUnit":"m.s-1","parameterCategory":1,"la1":30.2991,"la2":30.254,"lo1":-89.0895,"lo2":-89.0444,"dy":0.0017,"dx":0.0017,"nx":28,"ny":28,"refTime":"2025-09-18T21:00:00:Z","depth":0,"parameterNumber":2,"parameterNumberName":"U-component_of_WINDS"},"data":[0,0,0,0,0,0,0,0,0,0,0,0,0,0,0,0,0,0,0,0,0,0,0,0,0,0,0,0,0,0,0,0,0,0,0,0,0,0,0,0,0,0,0,0,0,0,0,0,0,0,0,0,0,0,0,0,0,0,1.5314,1.5316,0,1.5504,1.5506,1.5509,1.5554,1.5553,1.5551,1.555,1.5749,1.5755,1.5761,0,0,0,0,0,0,0,0,0,0,0,0,0,1.4991,1.4996,1.5314,1.5316,1.5318,1.5504,1.5507,1.5509,1.5554,1.5553,1.5551,1.555,1.5747,1.5754,1.5762,0,0,0,0,0,0,0,0,0,0,0,0,0,1.5151,1.4998,1.5313,1.5363,1.537,1.5503,1.5507,1.551,1.5555,1.5553,1.5551,1.5549,1.5744,1.5754,1.5763,1.5862,0,0,1.5793,1.5797,0,0,0,0,0,0,0,0,1.5142,1.5163,1.5353,1.536,1.5367,1.5503,1.5465,1.5628,1.5555,1.5484,1.555,1.5548,1.5669,1.5685,1.5725,1.5871,1.588,1.5794,1.58,1.5804,1.5807,0,0,0,0,0,0,0,1.5131,1.5155,1.5389,1.5356,1.5365,1.5377,1.5397,1.5496,1.5585,1.549,1.5494,1.5516,1.5672,1.5715,1.573,1.5883,1.5793,1.5802,1.5808,1.5812,1.6117,1.612,0,0,0,0,0,0,1.5111,1.5145,1.5383,1.5395,1.5247,1.5384,1.5407,1.5462,1.5584,1.5601,1.5517,1.5517,1.57,1.5718,1.5737,1.5859,1.5804,1.5813,1.5818,1.6115,1.6118,1.612,0,0,0,0,0,0,1.5103,1.5131,1.5375,1.5271,1.5303,1.5392,1.5453,1.5466,1.5509,1.5605,1.5621,1.5545,1.5699,1.5723,1.583,1.5866,1.5817,1.5826,1.6112,1.6116,1.6119,1.6104,0,0,0,0,0,0,1.5094,1.5128,1.5167,1.5272,1.5308,1.5464,1.5455,1.5472,1.5526,1.5527,1.5635,1.5651,1.5699,1.5815,1.5839,1.5879,1.5834,1.611,1.6114,1.6118,1.6102,1.6107,1.6111,0,0,0,0,0,1.5082,1.5156,1.5168,1.5197,1.5358,1.5466,1.5488,1.5541,1.5528,1.5567,1.5628,1.5647,1.5858,1.5825,1.5853,1.5896,1.6107,1.6113,1.6118,1.61,1.6106,1.6111,0,0,0,0,0,0,1.5055,1.5171,1.5186,1.5296,1.537,1.5474,1.5525,1.5546,1.5627,1.5625,1.5689,1.5713,1.5815,1.5867,1.5828,1.5997,1.5983,1.5994,1.596,1.5966,1.597,1.5956,1.5842,0,0,0,0,0,1.5061,1.5139,1.5236,1.5324,1.5361,1.5436,1.5485,1.552,1.5601,1.5633,1.5702,1.578,1.5864,1.5918,1.6001,1.611,1.6133,1.6153,1.6157,1.6161,1.6169,1.6229,1.6238,1.6137,1.6137,1.6137,0,0,1.5076,1.5149,1.5194,1.532,1.5382,1.5461,1.5463,1.5547,1.5606,1.5646,1.575,1.5803,1.5895,1.6002,1.6053,1.6048,1.6202,1.6167,1.6169,1.6176,1.6235,1.6244,1.6253,1.6141,1.614,1.6139,0,0,1.5142,1.5206,1.5284,1.5346,1.544,1.5489,1.5508,1.5608,1.5644,1.5749,1.578,1.5852,1.5996,1.6059,1.611,1.6198,1.6218,1.6223,1.6247,1.6304,1.6312,1.6319,1.6349,1.6359,1.6232,1.6232,1.6232,0,1.5148,1.5268,1.5323,1.5405,1.5459,1.5497,1.5577,1.5635,1.5751,1.5787,1.578,1.5959,1.6024,1.6146,1.6167,1.6208,1.6231,1.6211,1.6306,1.6314,1.6322,1.6351,1.6362,1.6232,1.6232,1.6232,1.6232,0,1.5271,1.5353,1.5406,1.5515,1.5575,1.5656,1.5722,1.5777,1.5806,1.5855,1.5961,1.604,1.6138,1.617,1.62,1.6295,1.6289,1.6293,1.628,1.633,1.6359,1.6371,1.6232,1.6232,1.6232,1.6232,0,0,1.5326,1.5462,1.548,1.5529,1.5635,1.57,1.5782,1.5876,1.5921,1.6,1.607,1.6189,1.6193,1.6251,1.6288,1.6338,1.6401,1.6337,1.634,1.6344,1.6509,1.6504,1.6516,1.6415,1.6417,1.6419,1.6501,0,1.5404,1.5551,1.5601,1.5723,1.5799,1.5835,1.5907,1.5979,1.6027,1.6099,1.6154,1.6237,1.6236,1.6271,1.6323,1.6382,1.6435,1.6377,1.648,1.6483,1.6455,1.6532,1.6527,1.6601,1.6513,1.6515,1.6516,0,1.5515,1.5593,1.5721,1.5815,1.5849,1.5912,1.6001,1.607,1.6152,1.6184,1.6247,1.628,1.6367,1.6349,1.6469,1.6429,1.6474,1.6509,1.6514,1.6525,1.6502,1.6543,1.6626,1.6636,1.6534,1.6533,1.6532,0,1.554,1.5677,1.5771,1.5812,1.5925,1.5968,1.6017,1.6097,1.615,1.6229,1.6263,1.6352,1.64,1.6467,1.6523,1.6505,1.6638,1.6625,1.6666,1.6665,1.6692,1.669,1.6781,1.6723,1.6723,1.6723,1.6722,0,1.5621,1.5698,1.5783,1.5841,1.5928,1.5985,1.607,1.6121,1.6192,1.626,1.6298,1.6361,1.6432,1.6504,1.6549,1.6641,1.6663,1.6691,1.6701,1.6687,1.6683,1.6716,1.6712,1.6726,1.6725,1.6724,1.6724,0,1.5663,1.5724,1.5829,1.5925,1.5952,1.6011,1.6094,1.6151,1.6201,1.6287,1.631,1.6389,1.6476,1.6538,1.6651,1.6681,1.6779,1.679,1.675,1.6756,1.6793,1.6788,1.6909,1.6927,1.6857,1.6858,1.6858,0,1.5711,1.577,1.5873,1.592,1.5969,1.6046,1.6099,1.6158,1.6212,1.6309,1.6354,1.6444,1.6518,1.6656,1.6723,1.6809,1.6822,1.6858,1.6835,1.6818,1.6821,1.6816,1.6821,1.6861,1.6862,1.6862,1.6862,0,1.5788,1.5814,1.5889,1.5975,1.6037,1.6108,1.6179,1.6216,1.6287,1.6346,1.6434,1.6492,1.6606,1.6693,1.6786,1.6837,1.6861,1.6869,1.6883,1.6868,1.6842,1.6855,1.6758,1.6866,1.6866,1.6865,1.6865,1.6865,1.5833,1.5887,1.5967,1.6049,1.6108,1.6173,1.6231,1.6287,1.6361,1.6457,1.6488,1.6579,1.6659,1.6785,1.6837,1.6909,1.6908,1.6928,1.6933,1.6937,1.6935,1.6831,1.6926,1.6926,1.6926,1.6926,1.6926,0,1.5911,1.5963,1.6038,1.6135,1.6199,1.6216,1.6295,1.6347,1.6427,1.6499,1.657,1.6671,1.6756,1.6829,1.6917,1.6961,1.6974,1.6982,1.6979,1.699,1.6933,1.6911,1.6969,1.6969,1.6969,1.6969,1.6969,1.6969,1.5958,1.6049,1.6085,1.6206,1.6258,1.6347,1.639,1.645,1.6507,1.6618,1.6688,1.6734,1.6807,1.69,1.6978,1.6997,1.7027,1.7032,1.7054,1.6999,1.6994,1.6989,1.6969,1.7039,1.7039,1.7105,1.7105,1.7106]},{"header":{"parameterUnit":"m.s-1","parameterCategory":1,"la1":30.2991,"la2":30.254,"lo1":-89.0895,"lo2":-89.0444,"dy":0.0017,"dx":0.0017,"nx":28,"ny":28,"refTime":"2025-09-18T21:00:00:Z","depth":0,"parameterNumber":3,"parameterNumberName":"V-component_of_WINDS"},"data":[0,0,0,0,0,0,0,0,0,0,0,0,0,0,0,0,0,0,0,0,0,0,0,0,0,0,0,0,0,0,0,0,0,0,0,0,0,0,0,0,0,0,0,0,0,0,0,0,0,0,0,0,0,0,0,0,0,0,3.0976,3.0976,0,3.097,3.097,3.097,3.0955,3.0954,3.0954,3.0954,3.0945,3.0945,3.0945,0,0,0,0,0,0,0,0,0,0,0,0,0,3.0971,3.0971,3.0976,3.0976,3.0976,3.097,3.097,3.097,3.0955,3.0954,3.0954,3.0954,3.0945,3.0945,3.0945,0,0,0,0,0,0,0,0,0,0,0,0,0,3.097,3.0971,3.0976,3.0968,3.0967,3.097,3.097,3.097,3.0955,3.0954,3.0954,3.0953,3.0945,3.0945,3.0945,3.0954,0,0,3.0945,3.0945,0,0,0,0,0,0,0,0,3.097,3.097,3.0969,3.0968,3.0967,3.0963,3.0965,3.0964,3.0955,3.0959,3.0954,3.0953,3.0951,3.095,3.095,3.0954,3.0954,3.0945,3.0945,3.0945,3.0945,0,0,0,0,0,0,0,3.097,3.097,3.0973,3.0969,3.0968,3.0963,3.0962,3.0964,3.0958,3.0959,3.0958,3.0957,3.095,3.095,3.095,3.0953,3.0945,3.0945,3.0945,3.0945,3.0961,3.0962,0,0,0,0,0,0,3.0972,3.097,3.0974,3.0973,3.0968,3.0963,3.0963,3.0965,3.0958,3.0956,3.0958,3.0957,3.095,3.095,3.0949,3.0958,3.0945,3.0945,3.0945,3.0961,3.0962,3.0962,0,0,0,0,0,0,3.0972,3.0972,3.0974,3.0971,3.0971,3.0964,3.0966,3.0965,3.0964,3.0957,3.0955,3.0959,3.095,3.0949,3.0953,3.0958,3.0945,3.0945,3.0961,3.0961,3.0962,3.0977,0,0,0,0,0,0,3.0971,3.0972,3.0977,3.0972,3.0971,3.0979,3.0967,3.0965,3.0965,3.0963,3.0958,3.0956,3.0949,3.0953,3.0953,3.0958,3.0945,3.096,3.0961,3.0962,3.0976,3.0978,3.098,0,0,0,0,0,3.0971,3.0982,3.0977,3.0978,3.0977,3.0979,3.0979,3.0972,3.0965,3.0969,3.0964,3.0956,3.0957,3.0953,3.0953,3.0958,3.096,3.0961,3.0962,3.0975,3.0978,3.098,0,0,0,0,0,0,3.0987,3.0981,3.0976,3.0985,3.0983,3.0977,3.0981,3.0975,3.0974,3.0972,3.0963,3.0961,3.0965,3.0962,3.0958,3.0965,3.0957,3.0958,3.0967,3.097,3.0972,3.0972,3.0945,0,0,0,0,0,3.0992,3.0995,3.0989,3.0997,3.0996,3.0989,3.0989,3.0984,3.0981,3.098,3.0975,3.0971,3.097,3.097,3.0969,3.0975,3.0973,3.0978,3.098,3.0982,3.0983,3.0983,3.0985,3.0965,3.0965,3.0965,0,0,3.1002,3.0998,3.1001,3.1,3.0998,3.0999,3.0988,3.0991,3.0992,3.098,3.0982,3.0978,3.0973,3.0978,3.098,3.0975,3.0987,3.0983,3.0984,3.0984,3.0984,3.0986,3.0988,3.0965,3.0965,3.0965,0,0,3.1019,3.1018,3.1024,3.1021,3.1018,3.1013,3.1014,3.1008,3.1005,3.1008,3.0998,3.0998,3.0997,3.0994,3.0992,3.1005,3.0997,3.1005,3.1015,3.1015,3.1017,3.1018,3.1021,3.1023,3.1006,3.1006,3.1006,0,3.1031,3.1035,3.1028,3.103,3.1029,3.1019,3.1023,3.1021,3.1017,3.1016,3.1011,3.1008,3.1005,3.1007,3.101,3.1009,3.1009,3.1006,3.1018,3.1019,3.102,3.1023,3.1024,3.1007,3.1007,3.1007,3.1007,0,3.1048,3.1051,3.1056,3.1052,3.1051,3.1055,3.1047,3.1047,3.1041,3.1036,3.1037,3.1031,3.1028,3.1028,3.1023,3.1029,3.1026,3.102,3.1011,3.1023,3.1025,3.1026,3.1008,3.1008,3.1007,3.1007,0,0,3.1077,3.1068,3.107,3.1067,3.1061,3.1062,3.1064,3.1061,3.1061,3.1058,3.1058,3.1057,3.105,3.1048,3.1041,3.1042,3.105,3.1035,3.1035,3.1037,3.1055,3.1059,3.106,3.1045,3.1046,3.1046,3.1054,0,3.1092,3.1097,3.1089,3.1094,3.1095,3.1084,3.1085,3.1081,3.1075,3.1074,3.1067,3.1066,3.1058,3.1056,3.1057,3.105,3.1054,3.1049,3.1044,3.1044,3.1045,3.1062,3.1067,3.1075,3.1055,3.1056,3.1056,0,3.1111,3.1109,3.1114,3.1106,3.1106,3.1108,3.1103,3.1102,3.1096,3.1092,3.1088,3.1081,3.108,3.1072,3.107,3.1067,3.1064,3.106,3.106,3.1059,3.105,3.1059,3.1078,3.1079,3.1058,3.1057,3.1057,0,3.1129,3.1127,3.113,3.1128,3.1119,3.112,3.1116,3.111,3.1107,3.1103,3.1101,3.1097,3.1094,3.109,3.108,3.1076,3.1078,3.107,3.1073,3.1073,3.1074,3.1074,3.1091,3.1074,3.1074,3.1074,3.1074,0,3.1146,3.1149,3.1137,3.1139,3.1141,3.1132,3.1134,3.1129,3.1123,3.1121,3.1111,3.111,3.1098,3.1095,3.1087,3.1085,3.1085,3.108,3.1077,3.108,3.1081,3.1078,3.1077,3.1074,3.1074,3.1074,3.1074,0,3.1166,3.1159,3.116,3.1151,3.1149,3.1151,3.1143,3.1142,3.1136,3.1134,3.1133,3.1123,3.1118,3.1108,3.1101,3.1096,3.1095,3.1092,3.1098,3.1096,3.1099,3.1099,3.1114,3.1115,3.1099,3.1099,3.1099,0,3.1177,3.1179,3.117,3.1169,3.1166,3.1164,3.1162,3.1152,3.1149,3.1141,3.1142,3.1137,3.1132,3.1125,3.1116,3.111,3.1106,3.1111,3.1104,3.1106,3.1104,3.1103,3.1103,3.1113,3.1113,3.1113,3.1113,0,3.1197,3.1192,3.119,3.1186,3.1183,3.1179,3.1174,3.1174,3.1162,3.116,3.1155,3.1152,3.1144,3.1138,3.1131,3.1125,3.1116,3.1115,3.1116,3.1118,3.1121,3.1118,3.1101,3.1115,3.1115,3.1115,3.1115,3.1115,3.1211,3.1212,3.1205,3.1202,3.1198,3.1193,3.1192,3.1185,3.1182,3.1175,3.1169,3.1165,3.1156,3.1145,3.114,3.1135,3.1131,3.1132,3.1132,3.1132,3.1132,3.1122,3.1134,3.1134,3.1134,3.1133,3.1133,0,3.1229,3.1224,3.1221,3.1215,3.1212,3.1205,3.1199,3.1196,3.1193,3.1186,3.1182,3.1176,3.117,3.116,3.1152,3.115,3.1146,3.1149,3.1148,3.1147,3.1137,3.1137,3.1152,3.1152,3.1152,3.1152,3.1152,3.1152,3.1238,3.1238,3.1232,3.1229,3.1223,3.122,3.1217,3.1212,3.1206,3.12,3.1195,3.1189,3.118,3.1172,3.1165,3.1162,3.1159,3.1163,3.1159,3.1149,3.1148,3.1146,3.1146,3.1163,3.1163,3.1169,3.1169,3.1169]}]]